Location: Newark
(41.9364°N, 2.8061°E)
Time: 20:43:42
(UTC+00:00)

A-11 Canister half - Pass Details

Date: 22 February 2020
Orbit: 1516 x 1683 km, 47.2° (Epoch: 09 April)

Event Time Altitude Azimuth Distance (km) Brightness Sun altitude
Rises 17:48:42 0° 266° (W) 4,895 14.4 -4.3°
Reaches altitude 10° 17:51:56 10° 269° (W) 3,890 12.9 -4.9°
Maximum altitude 18:01:49 67° 352° (N) 1,725 9.3 -6.7°
Drops below altitude 10° 18:11:22 10° 75° (ENE) 3,760 10.4 -8.5°
Enters shadow 18:11:36 - 75° (ENE) 3,831 10.4 -8.5°
